Preview of NWS' New Version of Forecast
This preview is not operational and should not be used for support decisions.

Regional Weather Roundup (RWR)

Issued by National Weather Service (NWS)

                            
000
ASUS43 KMKX 231021
RWRWI 

WISCONSIN REGIONAL WEATHER ROUNDUP
NATIONAL WEATHER SERVICE MILWAUKEE/SULLIVAN WI
500 AM CDT TUE JUL 23 2019

NOTE: "FAIR" INDICATES FEW OR NO CLOUDS BELOW 12,000 FEET WITH NO
SIGNIFICANT WEATHER AND/OR OBSTRUCTIONS TO VISIBILITY.

WIZ001-002-006>008-014>016-023>028-231100-
NORTHWEST WISCONSIN
  
CITY           SKY/WX    TMP DP  RH WIND       PRES   REMARKS
SUPERIOR ARPT  FAIR      58  55  89 CALM      30.17F                  
ASHLAND        FAIR      55  52  89 SW5       30.17R                  
HAYWARD        FAIR      53  52  96 CALM      30.20R                  
SIREN          CLOUDY    56  54  92 CALM      30.21S                  
CUMBERLAND     NOT AVBL                                               
RICE LAKE      FAIR      57  46  64 CALM      30.21R                  
CHETEK         FAIR      60  56  87 NW5       30.19S                  
LADYSMITH      FAIR      60  57  91 NW7       30.19S                  
EAU CLAIRE     FAIR      58  54  86 W5        30.18R                  
MENOMONIE      FAIR      57  52  81 W3        30.20R                  
NEW RICHMOND   FAIR      56  53  92 CALM      30.22R                  
OSCEOLA        FAIR      55  55 100 CALM      30.24R                  
$$
 
WIZ003>005-009-010-017-018-231100-
NORTH CENTRAL WISCONSIN
  
CITY           SKY/WX    TMP DP  RH WIND       PRES   REMARKS
MANITOWISH WTR FAIR      53  53 100 NW6       30.16R                  
ARBOR VITAE    FAIR      57  54  89 N5        30.16R                  
WOODRUFF       FAIR      57  54  89 N5        30.16R                  
RHINELANDER    FAIR      57  53  86 NW5       30.15R                  
EAGLE RIVER    FAIR      55  53  94 NW3       30.15R                  
LAND O LAKES   FAIR      56  54  92 CALM      30.16R                  
PHILLIPS       FAIR      55  55 100 CALM      30.16S                  
TOMAHAWK       FAIR      53  51  95 W3        30.16S                  
MEDFORD        FAIR      55  52  92 CALM      30.17R                  
MERRILL        FAIR      57  55  91 NW6       30.15S                  
$$
 
WIZ029-030-035-036-043>047-231100-
CENTRAL WISCONSIN
  
CITY           SKY/WX    TMP DP  RH WIND       PRES   REMARKS
WAUSAU         FAIR      61  54  77 NW5       30.12R                  
MOSINEE        NOT AVBL                                               
MARSHFIELD     FAIR      58  55  90 NW7       30.15R                  
STEVENS POINT  FAIR      59  56  91 NW5       30.14R                  
WAUPACA        NOT AVBL                                               
WAUTOMA        CLOUDY    62  57  83 W3        30.12R                  
WISC RAPIDS    FAIR      60  56  86 NW7       30.14R                  
CAMP DOUGLAS   NOT AVBL                                               
$$
 
WIZ011>013-019>022-031-037>040-048>050-231100-
NORTHEAST WISCONSIN
  
CITY           SKY/WX    TMP DP  RH WIND       PRES   REMARKS
ANTIGO         FAIR      56  55  94 NW7       30.14R                  
SHAWANO        MOCLDY    62  57  84 CALM      30.09S                  
OCONTO         MOCLDY    60  56  84 W3        30.07S                  
STURGEON BAY   LGT RAIN  63  57  81 N5        30.08R                  
GREEN BAY      FAIR      61  58  90 NW7       30.08S                  
MANITOWOC      FAIR      61  55  81 NW5       30.08R                  
APPLETON       MOCLDY    59  54  82 NW10      30.08R                  
CLINTONVILLE   CLOUDY    62  55  76 NW3       30.10R                  
OSHKOSH        FAIR      62  56  80 W5        30.09S                  
$$
 
WIZ032>034-041-042-053>061-231100-
SOUTHWEST WISCONSIN
  
CITY           SKY/WX    TMP DP  RH WIND       PRES   REMARKS
LA CROSSE      FAIR      63  57  81 N3        30.17R                  
SPARTA         FAIR      49  48  99 CALM      30.18R                  
VIROQUA        FAIR      58  58 100 W5        30.18S                  
BOSCOBEL       FAIR      58  55  90 CALM      30.17R                  
PRAIRIE DU CHI FAIR      59  55  85 NW3       30.17S                  
PLATTEVILLE    FAIR      56  56 100 W5        30.17S                  
$$

WIZ056-057-062-063-064-067-068-231100-
SOUTH CENTRAL WISCONSIN
  
CITY           SKY/WX    TMP DP  RH WIND       PRES   REMARKS
REEDSBURG      FAIR      60  56  88 W7        30.14S                  
BARABOO/DELLS  FAIR      59  55  84 W3        30.14R                  
LONE ROCK      FAIR      60  57  89 W8        30.15R                  
MINERAL POINT  FAIR      59  59 100 NW3       30.16S                  
MADISON        FAIR      61  55  81 W6        30.12R                  
MIDDLETON      FAIR      60  56  85 W6        30.14R                  
WATERTOWN      NOT AVBL                                               
MONROE         FAIR      61  53  76 NW12      30.14R                  
JANESVILLE     FAIR      59  57  94 CALM      30.13R                  
$$
 
WIZ051-052-058>065-066-070>072-231100-
SOUTHEAST WISCONSIN
  
CITY           SKY/WX    TMP DP  RH WIND       PRES   REMARKS
MILWAUKEE      FAIR      64  54  69 NW6       30.09R                  
WAUKESHA       FAIR      57  54  88 W5        30.12S                  
MILWAUKEE/TIMM FAIR      57  50  77 CALM      30.11R                  
RACINE         FAIR      61  54  77 NW8       30.11R                  
KENOSHA        FAIR      62  57  83 NW7       30.09S                  
FOND DU LAC    FAIR      60  57  89 CALM      30.10S                  
SHEBOYGAN      FAIR      58  54  86 W5        30.07F                  
WEST BEND      FAIR      55  54  94 CALM      30.09F                  
JUNEAU         FAIR      57  55  94 CALM      30.12S                  
$$

LSZ147-162-231100-
LAKE SUPERIOR
  
STATION/POSITION TIME  TEMP    WIND        PRES    WAVE
                       AIR SEA DIR/SP/G            HT/PER
                 (UTC) (F)     (DEG/KT/KT) (MB)    (FT/S)
W MID LAKE BUOY  0850   55 46  300/ 10/ 10 1019.3R   1/ 3
$$
 
LMZ867-665-643>646-231100-
LAKE MICHIGAN
  
STATION/POSITION TIME  TEMP    WIND        PRES    WAVE
                       AIR SEA DIR/SP/G            HT/PER
                 (UTC) (F)     (DEG/KT/KT) (MB)    (FT/S)
CHAMBERS ISLAND  0940   66     330/ 15/ 17 1016.9R
S GREEN BAY BUOY 1000   71 72  340/ 16/ 17 1018.2
N MID LAKE BUOY  0940      65  320/ 10/ 12   N/A
NORTHPORT PIER   0940   67     320/  8/ 16 1017.3R
KEWAUNEE LAKESHO 0936   62     290/  3/  7 1017.3R
SHEBOYGAN LAKESH 1000   63     260/  7/  8 1018.0F
ATWATER BUOY     1000   65 65  280/  8/ 10 1018.9    1/ 5
MILWAUKEE LAKESH 0950   64     300/  8/  9   N/A
S MID LAKE BUOY  0940   67 68  350/ 10/ 12 1018.3R
KENOSHA   LAKESH 1000   63     300/ 10/ 12 1018.6
$$

TC  - TEMPERATURE IN CELSIUS
VSB - VISIBILITY IN STATUTE MILES
WCI - WIND CHILL INDEX
HX  - HEAT INDEX